Find OneWeb SL0066

NORAD ID: 45424 Int'l Des: 2020-020 Owner: ONEWEB Country: UK Constellation: oneweb operational
又名: ONEWEB-0066 spacetrack, celestrak
LEOCIRCULARPOLARONEWEB_TYPE

当前视图

正在加载3D地球...

About OneWeb SL0066

OneWeb SL0066 (NORAD 45424) is a oneweb constellation satellite launched Mar 21, 2020 by ONEWEB of UK. It operates in LEO, CIRCULAR, POLAR, ONEWEB_TYPE orbit with a mass of 148.00 kg.

即将过境

Passes for default location (London). Set your location on the main map for personalized predictions.

高度历史

Loading altitude history...

两行轨道根数

1 45424U 20020A 26265.73028027 .00000420 00000-0 11499-2 0 9995
2 45424 87.8967 1.6796 0001856 97.1465 262.9874 13.11415234315469
Epoch: Sep 22, 2026 • Age: 9 hours

当前状态

高度 1221.8 km
远地点 / 近地点 N/A
速度 7.25 km/s
星下点 35.61°N, 41.81°W
发射日期 Mar 21, 2020
运行时间 6.5 years
类型 internet

技术详情

分类 Payload
质量 148.00 kg
干质量 140.00 kg
长度 1.30 m
直径 1.00 m
跨度 5.00 m
形状 ? Trapezoid+2 pan
制造商 ONEWUS
平台类型 ARROW
阶段状态 In Orbit
所有者/国家 ONEWEB/UK

Most Searched